SCP
-1 -1 -0 -0 -0 -0 -1 -1 -0 0 0 1 0 1 2 4 7 8 8 5 0 0 0 1 1 1 1 1 1 1 1 1 1 1 0 0 0 0 0 0 0 0 0
-1 -1 -1 -1 -1 -1 -1 -1 -0 -0 0 0 1 3 4 7 8 9 10 0 0 0 -0 0 1 1 1 1 2 1 2 1 0 0 0 0 0 0 0 0 0 0 0
-1 -1 -1 -1 -1 -1 -1 -1 -0 1 0 1 3 4 5 7 7 7 8 1 0 0 0 1 1 1 1 1 2 1 0 0 0 0 0 0 0 0 0 0 0 0 0
-1 -2 -1 -1 -1 -1 -0 0 0 0 1 2 4 6 8 8 8 5 4 1 0 0 0 1 1 1 1 0 0 0 0 0 0 0 0 0 0 0 0 0 0 0 0
-1 -1 -1 -0 0 0 0 0 0 1 3 4 7 9 10 9 8 5 1 0 1 0 2 0 0 0 0 0 0 0 0 0 0 0 0 0 0 0 0 0 0 0 0
-0 -0 -0 -0 0 0 0 0 1 2 4 6 7 6 7 7 5 1 0 0 0 1 0 0 0 0 0 0 0 0 0 0 0 0 0 0 0 0 0 0 0 0 0
0 -0 -0 -1 -0 0 0 1 2 3 4 5 5 5 7 4 1 1 1 2 2 1 0 0 0 0 0 0 0 0 0 0 0 0 0 0 0 0 0 0 0 0 0
-0 -0 -1 -1 -0 0 1 2 3 4 3 4 5 4 7 0 0 0 1 2 2 1 0 0 0 0 0 0 0 0 0 0 0 0 0 0 0 0 0 0 0 0 0
-0 -0 -1 -1 -0 0 1 2 3 3 3 4 4 6 2 0 0 1 2 2 0 0 0 0 0 0 0 0 0 0 0 0 0 0 0 0 0 -0 0 0 0 0 0
-0 -0 -1 -1 -0 0 2 3 3 3 4 4 5 4 2 1 0 1 1 0 0 0 0 0 0 0 0 0 0 0 0 0 0 -0 0 0 0 0 0 0 -0 -0 0
1 1 0 0 1 2 2 3 4 4 3 3 3 3 2 1 0 0 0 0 0 0 0 0 0 0 0 0 0 0 0 0 0 0 0 0 0 0 0 0 0 -0 -0
2 1 -0 1 2 3 3 4 4 3 3 3 3 3 2 0 0 0 0 0 0 0 0 0 0 0 0 0 0 0 0 0 0 0 0 0 0 0 0 0 0 -0 -0
2 2 2 3 4 4 4 3 3 2 3 3 2 1 1 0 0 0 0 0 0 0 0 0 0 0 0 0 0 0 0 0 0 0 0 0 0 0 0 0 0 0 0
4 4 2 4 4 2 2 2 2 2 3 2 1 1 0 0 0 0 0 0 0 0 0 0 0 0 0 0 0 0 0 0 0 0 0 0 0 0 0 0 0 0 0
3 3 4 3 2 1 1 1 2 2 1 1 1 1 0 0 0 0 0 0 0 0 0 0 0 0 -0 0 0 0 0 0 0 0 0 0 0 0 0 0 0 0 0
6 5 3 2 0 0 0 0 0 0 0 0 0 0 0 0 0 0 0 0 0 0 0 0 0 0 0 0 0 0 0 0 0 0 0 0 0 0 0 0 0 0 0
6 3 2 1 1 0 0 0 0 0 0 0 0 0 0 0 0 0 0 0 0 0 0 0 0 0 0 0 0 0 0 0 0 0 0 0 0 0 0 0 0 0 0
4 3 3 2 2 1 1 1 0 0 0 0 0 0 0 0 0 0 0 0 0 0 0 0 0 0 0 0 0 0 0 0 0 0 0 0 0 0 0 0 0 0 0
3 2 3 2 2 3 1 1 1 0 0 0 0 0 0 0 0 0 0 0 0 0 0 0 0 0 0 0 0 0 0 0 0 0 0 0 0 0 0 0 0 0 0
2 2 3 3 2 2 1 1 1 0 0 0 0 0 0 0 0 0 0 0 0 0 0 0 0 0 0 0 0 0 0 0 0 0 -0 0 0 0 0 0 0 0 0
1 1 1 2 2 2 1 1 1 0 0 0 0 0 0 0 0 0 0 0 0 0 0 0 0 0 0 0 0 0 0 0 0 -0 0 0 0 0 0 0 0 0 0
2 1 2 2 1 1 1 1 0 0 0 0 0 0 0 0 0 0 0 0 0 0 0 0 0 0 0 0 0 0 0 0 0 -0 -0 0 0 0 0 0 0 0 0
2 1 1 1 1 1 1 1 0 0 0 0 0 0 0 0 0 0 0 0 0 0 0 0 0 0 0 0 0 0 0 0 0 -0 -0 0 0 0 0 0 0 0 0
1 1 0 0 1 1 1 1 1 0 0 0 0 0 0 0 0 0 0 0 0 0 0 0 0 0 0 0 0 0 0 0 -0 -0 -0 0 0 0 0 0 0 0 0
1 1 -0 1 1 1 1 1 1 0 0 0 0 0 0 0 0 0 0 0 0 0 0 0 0 0 0 0 0 0 0 0 0 -0 0 0 0 0 0 0 0 0 0
1 1 1 2 1 1 1 1 1 0 0 0 0 0 0 0 0 0 0 0 0 0 0 0 0 0 0 0 0 0 0 0 0 -0 -0 0 0 0 0 0 0 0 0
Wind_Speed_500mb
71 64 61 68 70 67 65 68 68 63 59 57 60 55 59 58 57 46 48 41 19 45 55 41 50 46 42 35 18 15 18 21 34 35 36 43 42 46 42 54 50 48 58
70 65 59 61 64 63 65 62 61 64 62 60 63 66 62 58 54 49 53 51 52 56 71 41 40 36 35 21 9 15 17 24 32 35 42 42 40 39 54 63 55 52 49
71 65 62 63 63 64 62 58 55 56 58 60 63 61 59 51 46 50 51 54 40 41 33 31 34 31 12 9 17 15 22 27 26 34 35 38 39 52 58 58 57 61 68
70 67 62 66 66 62 59 58 57 57 61 64 61 56 50 42 39 40 46 38 38 36 15 32 25 5 4 5 11 20 29 34 34 31 28 36 45 53 59 65 75 75 75
67 65 63 56 61 60 61 60 61 62 63 61 57 49 37 35 35 33 34 26 21 11 19 25 11 4 11 17 16 25 33 35 33 30 29 40 52 62 68 68 72 73 61
67 64 61 59 58 60 60 59 58 55 53 49 41 33 33 32 31 31 22 14 9 16 13 11 4 11 11 11 26 31 33 33 33 35 39 43 46 62 66 74 69 70 65
67 65 63 61 61 59 55 52 49 48 45 38 34 31 31 30 24 22 15 14 15 16 10 16 5 3 13 24 29 31 28 30 33 37 41 47 44 56 70 82 72 62 50
66 68 66 63 60 54 52 47 44 42 37 33 34 25 28 26 19 16 11 20 24 19 17 15 17 9 12 20 24 21 19 23 26 35 40 36 47 55 62 77 66 62 61
73 72 69 63 57 50 47 43 41 38 30 30 23 29 30 22 20 17 32 34 29 23 18 12 6 8 17 21 21 18 20 26 31 28 29 28 37 40 60 71 94 87 83
72 72 66 59 53 47 42 40 36 34 29 31 31 30 25 19 21 41 35 28 23 20 12 6 3 11 16 18 18 21 23 28 32 26 20 27 34 30 50 60 67 93 88
64 61 57 58 49 45 39 39 38 35 41 34 32 29 22 36 46 40 23 16 17 12 11 6 2 9 14 16 19 27 30 27 27 29 25 25 31 22 38 48 53 66 85
55 56 55 54 50 47 47 45 45 43 38 38 34 37 47 50 49 37 32 19 18 10 6 8 3 8 12 18 25 29 26 25 26 23 22 23 29 22 24 37 43 55 60
56 62 58 47 52 51 52 50 48 41 42 47 46 51 53 54 51 44 36 21 25 15 8 2 5 10 12 26 25 19 17 21 22 23 24 25 28 29 28 34 39 45 49
67 61 50 66 63 56 53 47 47 49 57 55 46 49 53 53 48 41 31 23 23 13 9 5 10 20 26 28 22 21 26 26 23 22 23 23 27 27 27 26 28 33 41
62 58 70 69 63 58 52 48 49 50 53 54 42 44 52 51 46 36 28 25 21 13 10 11 19 23 21 15 17 19 19 19 20 21 22 21 24 29 32 27 29 36 44
70 75 71 69 67 59 56 58 52 50 55 34 21 37 39 39 40 33 26 19 19 16 20 19 15 12 11 10 10 13 12 17 21 19 19 21 25 26 30 33 36 34 36
80 78 73 70 68 61 61 64 67 61 49 39 35 31 28 34 35 29 26 26 22 27 25 15 13 12 12 13 10 5 10 25 19 19 19 21 24 25 26 30 33 38 44
65 63 72 70 68 65 66 67 71 68 60 55 46 37 30 33 33 31 32 28 35 27 24 17 17 17 16 16 12 11 11 15 17 18 17 17 20 20 28 30 30 31 31
61 57 56 64 70 73 73 72 67 64 67 65 57 47 41 38 34 34 32 25 27 21 22 20 20 21 19 21 22 20 18 19 19 17 18 18 17 23 28 32 35 32 33
54 56 59 59 71 70 72 66 60 57 64 66 63 59 59 54 52 48 38 33 26 24 22 21 22 22 21 17 15 19 22 24 19 14 17 20 21 21 21 22 22 24 28
53 50 47 48 75 70 64 62 63 62 54 69 66 62 58 58 51 46 45 36 28 28 27 25 23 29 22 20 24 19 15 14 16 17 15 19 19 23 21 21 21 23 24
49 57 60 54 64 63 64 64 62 52 46 60 59 61 57 55 49 48 42 30 32 32 31 30 28 23 20 23 28 22 18 16 18 16 16 19 21 19 19 20 21 21 25
43 52 53 57 60 64 64 63 58 49 46 50 47 53 68 49 38 38 39 36 38 37 38 34 32 24 25 27 34 29 20 19 20 21 17 16 21 20 18 17 14 16 22
40 46 52 56 60 63 62 60 59 52 53 57 56 44 70 56 46 40 42 42 44 40 38 34 32 35 36 30 32 36 28 31 32 25 22 18 21 24 18 14 15 19 27
39 46 53 53 57 59 59 58 55 55 58 55 56 43 69 58 49 47 48 52 47 43 37 37 40 40 31 33 33 37 34 29 37 41 28 23 23 22 21 17 23 22 24
29 49 47 51 54 54 54 53 54 58 55 60 54 42 62 60 51 53 56 56 50 44 40 38 39 38 34 38 40 38 33 28 30 39 33 29 29 23 24 26 21 23 21
Wind_Direction_500mb
228 232 232 233 235 240 241 243 248 252 249 251 260 255 255 261 263 249 244 247 297 315 328 301 313 316 309 320 332 355 340 329 318 324 333 337 355 341 331 330 337 332 325
227 229 233 231 235 238 242 246 248 251 258 261 261 264 265 255 257 256 245 234 229 277 291 289 321 314 309 323 5 352 335 325 330 340 346 353 354 335 328 330 340 342 352
222 227 228 232 233 238 242 246 249 254 257 259 262 263 263 263 263 256 253 251 262 276 301 281 307 302 326 357 356 308 318 329 341 345 351 359 344 331 342 350 356 356 342
213 227 230 228 233 239 243 248 252 254 257 262 266 268 268 270 266 260 258 275 280 290 276 287 287 279 318 288 304 322 330 345 355 356 12 356 345 355 358 357 360 356 349
216 224 230 230 233 239 243 246 249 254 260 264 265 266 269 266 271 266 266 268 277 210 239 268 243 279 277 299 328 351 351 358 3 17 9 7 3 6 4 3 358 352 354
219 225 230 233 234 236 241 246 251 254 258 261 260 262 261 266 264 264 263 259 176 201 233 219 183 277 287 346 7 0 356 6 17 22 23 17 14 18 16 9 356 357 355
219 227 230 233 236 239 239 240 242 249 256 252 253 250 248 252 258 252 241 207 174 198 172 127 172 19 8 8 358 353 1 14 22 30 31 26 19 16 11 15 16 14 7
219 225 228 231 233 232 233 235 238 241 241 239 244 240 232 232 229 227 183 173 162 155 164 185 220 322 9 358 349 357 18 10 28 39 30 25 24 23 18 19 25 29 33
221 224 227 228 228 229 229 230 226 221 221 225 227 214 219 213 204 205 159 160 169 184 197 210 213 12 359 349 352 15 33 46 52 45 26 19 23 23 19 22 28 32 36
225 226 225 226 226 228 223 217 211 202 195 208 202 206 199 209 168 148 161 174 193 191 207 167 61 359 353 357 21 46 59 62 55 55 45 27 19 15 15 16 21 36 38
222 222 221 221 221 215 207 202 192 180 196 191 189 185 184 164 150 151 162 180 187 173 160 144 36 359 1 27 55 75 72 60 54 55 50 28 20 2 10 14 22 26 34
200 209 210 209 202 200 199 192 187 193 188 190 186 160 158 156 156 154 152 184 144 147 162 104 53 16 36 59 78 80 64 55 55 51 35 36 30 28 12 20 22 23 25
194 191 197 196 189 193 194 193 188 188 178 171 170 164 164 165 168 172 178 183 167 174 154 72 38 46 69 72 71 71 82 76 60 50 46 38 39 37 31 28 25 24 17
190 191 188 180 187 191 190 191 183 179 171 172 172 170 171 175 178 178 183 182 182 169 168 151 82 74 70 67 59 62 56 64 60 55 55 52 42 46 57 46 44 43 28
192 182 179 186 188 178 180 179 184 174 177 176 179 180 179 181 184 185 188 185 184 177 167 120 80 69 65 59 49 50 92 74 66 62 56 64 59 49 52 51 60 58 57
173 176 181 183 177 177 176 171 173 171 172 166 182 177 182 186 178 180 180 172 159 160 126 90 92 109 122 101 67 66 56 101 78 70 64 60 67 64 59 51 53 60 61
173 180 181 175 174 176 173 170 167 167 161 167 177 190 181 165 169 170 164 156 147 131 123 162 154 151 133 115 110 98 72 94 80 84 72 79 77 68 68 64 58 54 56
177 179 173 175 175 173 172 168 164 162 170 173 180 190 178 171 171 168 164 158 149 144 143 176 171 160 150 136 132 113 87 84 101 90 84 76 77 94 89 77 65 62 63
177 167 173 178 176 173 171 168 166 174 179 180 178 180 179 176 171 165 161 159 149 144 165 182 176 171 167 172 182 168 161 145 120 103 98 92 85 58 65 68 69 58 60
173 164 175 173 165 170 170 169 169 176 183 183 183 183 177 177 173 172 168 157 173 182 184 190 180 176 181 186 155 133 118 108 102 112 112 108 102 103 96 89 80 73 57
163 177 167 169 166 165 169 171 170 182 189 186 189 191 189 184 182 178 169 161 173 189 189 190 186 195 197 171 140 127 134 146 148 129 116 110 110 107 102 99 97 87 79
173 172 174 172 169 173 174 174 175 191 185 182 195 191 190 187 189 187 176 177 186 194 194 194 193 210 176 166 152 150 156 158 153 151 146 127 122 120 106 99 102 104 99
178 181 184 182 178 176 175 171 173 178 177 178 201 189 184 176 191 189 177 191 195 195 205 191 198 174 186 193 157 162 169 169 161 154 148 149 135 130 122 119 122 115 115
184 188 190 189 177 177 173 173 176 179 178 179 200 196 183 175 188 189 187 196 202 201 210 191 177 189 205 190 175 157 186 195 167 157 154 170 157 133 143 137 129 117 127
190 194 197 186 182 179 180 179 182 181 181 185 201 203 185 176 186 191 191 201 208 206 204 189 187 205 205 184 178 180 202 199 176 163 163 168 153 155 154 137 115 117 113
226 192 197 184 182 185 187 184 186 185 187 186 198 205 187 180 186 193 194 206 209 205 200 193 196 209 201 183 202 198 202 188 177 160 157 176 163 153 149 146 146 123 123
Wind_Speed_850mb
71 64 61 68 70 67 65 68 68 63 59 57 60 55 59 58 57 46 48 41 19 45 55 41 50 46 42 35 18 15 18 21 34 35 36 43 42 46 42 54 50 48 58
70 65 59 61 64 63 65 62 61 64 62 60 63 66 62 58 54 49 53 51 52 56 71 41 40 36 35 21 9 15 17 24 32 35 42 42 40 39 54 63 55 52 49
71 65 62 63 63 64 62 58 55 56 58 60 63 61 59 51 46 50 51 54 40 41 33 31 34 31 12 9 17 15 22 27 26 34 35 38 39 52 58 58 57 61 68
70 67 62 66 66 62 59 58 57 57 61 64 61 56 50 42 39 40 46 38 38 36 15 32 25 5 4 5 11 20 29 34 34 31 28 36 45 53 59 65 75 75 75
67 65 63 56 61 60 61 60 61 62 63 61 57 49 37 35 35 33 34 26 21 11 19 25 11 4 11 17 16 25 33 35 33 30 29 40 52 62 68 68 72 73 61
67 64 61 59 58 60 60 59 58 55 53 49 41 33 33 32 31 31 22 14 9 16 13 11 4 11 11 11 26 31 33 33 33 35 39 43 46 62 66 74 69 70 65
67 65 63 61 61 59 55 52 49 48 45 38 34 31 31 30 24 22 15 14 15 16 10 16 5 3 13 24 29 31 28 30 33 37 41 47 44 56 70 82 72 62 50
66 68 66 63 60 54 52 47 44 42 37 33 34 25 28 26 19 16 11 20 24 19 17 15 17 9 12 20 24 21 19 23 26 35 40 36 47 55 62 77 66 62 61
73 72 69 63 57 50 47 43 41 38 30 30 23 29 30 22 20 17 32 34 29 23 18 12 6 8 17 21 21 18 20 26 31 28 29 28 37 40 60 71 94 87 83
72 72 66 59 53 47 42 40 36 34 29 31 31 30 25 19 21 41 35 28 23 20 12 6 3 11 16 18 18 21 23 28 32 26 20 27 34 30 50 60 67 93 88
64 61 57 58 49 45 39 39 38 35 41 34 32 29 22 36 46 40 23 16 17 12 11 6 2 9 14 16 19 27 30 27 27 29 25 25 31 22 38 48 53 66 85
55 56 55 54 50 47 47 45 45 43 38 38 34 37 47 50 49 37 32 19 18 10 6 8 3 8 12 18 25 29 26 25 26 23 22 23 29 22 24 37 43 55 60
56 62 58 47 52 51 52 50 48 41 42 47 46 51 53 54 51 44 36 21 25 15 8 2 5 10 12 26 25 19 17 21 22 23 24 25 28 29 28 34 39 45 49
67 61 50 66 63 56 53 47 47 49 57 55 46 49 53 53 48 41 31 23 23 13 9 5 10 20 26 28 22 21 26 26 23 22 23 23 27 27 27 26 28 33 41
62 58 70 69 63 58 52 48 49 50 53 54 42 44 52 51 46 36 28 25 21 13 10 11 19 23 21 15 17 19 19 19 20 21 22 21 24 29 32 27 29 36 44
70 75 71 69 67 59 56 58 52 50 55 34 21 37 39 39 40 33 26 19 19 16 20 19 15 12 11 10 10 13 12 17 21 19 19 21 25 26 30 33 36 34 36
80 78 73 70 68 61 61 64 67 61 49 39 35 31 28 34 35 29 26 26 22 27 25 15 13 12 12 13 10 5 10 25 19 19 19 21 24 25 26 30 33 38 44
65 63 72 70 68 65 66 67 71 68 60 55 46 37 30 33 33 31 32 28 35 27 24 17 17 17 16 16 12 11 11 15 17 18 17 17 20 20 28 30 30 31 31
61 57 56 64 70 73 73 72 67 64 67 65 57 47 41 38 34 34 32 25 27 21 22 20 20 21 19 21 22 20 18 19 19 17 18 18 17 23 28 32 35 32 33
54 56 59 59 71 70 72 66 60 57 64 66 63 59 59 54 52 48 38 33 26 24 22 21 22 22 21 17 15 19 22 24 19 14 17 20 21 21 21 22 22 24 28
53 50 47 48 75 70 64 62 63 62 54 69 66 62 58 58 51 46 45 36 28 28 27 25 23 29 22 20 24 19 15 14 16 17 15 19 19 23 21 21 21 23 24
49 57 60 54 64 63 64 64 62 52 46 60 59 61 57 55 49 48 42 30 32 32 31 30 28 23 20 23 28 22 18 16 18 16 16 19 21 19 19 20 21 21 25
43 52 53 57 60 64 64 63 58 49 46 50 47 53 68 49 38 38 39 36 38 37 38 34 32 24 25 27 34 29 20 19 20 21 17 16 21 20 18 17 14 16 22
40 46 52 56 60 63 62 60 59 52 53 57 56 44 70 56 46 40 42 42 44 40 38 34 32 35 36 30 32 36 28 31 32 25 22 18 21 24 18 14 15 19 27
39 46 53 53 57 59 59 58 55 55 58 55 56 43 69 58 49 47 48 52 47 43 37 37 40 40 31 33 33 37 34 29 37 41 28 23 23 22 21 17 23 22 24
29 49 47 51 54 54 54 53 54 58 55 60 54 42 62 60 51 53 56 56 50 44 40 38 39 38 34 38 40 38 33 28 30 39 33 29 29 23 24 26 21 23 21
Wind_Direction_850mb
228 232 232 233 235 240 241 243 248 252 249 251 260 255 255 261 263 249 244 247 297 315 328 301 313 316 309 320 332 355 340 329 318 324 333 337 355 341 331 330 337 332 325
227 229 233 231 235 238 242 246 248 251 258 261 261 264 265 255 257 256 245 234 229 277 291 289 321 314 309 323 5 352 335 325 330 340 346 353 354 335 328 330 340 342 352
222 227 228 232 233 238 242 246 249 254 257 259 262 263 263 263 263 256 253 251 262 276 301 281 307 302 326 357 356 308 318 329 341 345 351 359 344 331 342 350 356 356 342
213 227 230 228 233 239 243 248 252 254 257 262 266 268 268 270 266 260 258 275 280 290 276 287 287 279 318 288 304 322 330 345 355 356 12 356 345 355 358 357 360 356 349
216 224 230 230 233 239 243 246 249 254 260 264 265 266 269 266 271 266 266 268 277 210 239 268 243 279 277 299 328 351 351 358 3 17 9 7 3 6 4 3 358 352 354
219 225 230 233 234 236 241 246 251 254 258 261 260 262 261 266 264 264 263 259 176 201 233 219 183 277 287 346 7 0 356 6 17 22 23 17 14 18 16 9 356 357 355
219 227 230 233 236 239 239 240 242 249 256 252 253 250 248 252 258 252 241 207 174 198 172 127 172 19 8 8 358 353 1 14 22 30 31 26 19 16 11 15 16 14 7
219 225 228 231 233 232 233 235 238 241 241 239 244 240 232 232 229 227 183 173 162 155 164 185 220 322 9 358 349 357 18 10 28 39 30 25 24 23 18 19 25 29 33
221 224 227 228 228 229 229 230 226 221 221 225 227 214 219 213 204 205 159 160 169 184 197 210 213 12 359 349 352 15 33 46 52 45 26 19 23 23 19 22 28 32 36
225 226 225 226 226 228 223 217 211 202 195 208 202 206 199 209 168 148 161 174 193 191 207 167 61 359 353 357 21 46 59 62 55 55 45 27 19 15 15 16 21 36 38
222 222 221 221 221 215 207 202 192 180 196 191 189 185 184 164 150 151 162 180 187 173 160 144 36 359 1 27 55 75 72 60 54 55 50 28 20 2 10 14 22 26 34
200 209 210 209 202 200 199 192 187 193 188 190 186 160 158 156 156 154 152 184 144 147 162 104 53 16 36 59 78 80 64 55 55 51 35 36 30 28 12 20 22 23 25
194 191 197 196 189 193 194 193 188 188 178 171 170 164 164 165 168 172 178 183 167 174 154 72 38 46 69 72 71 71 82 76 60 50 46 38 39 37 31 28 25 24 17
190 191 188 180 187 191 190 191 183 179 171 172 172 170 171 175 178 178 183 182 182 169 168 151 82 74 70 67 59 62 56 64 60 55 55 52 42 46 57 46 44 43 28
192 182 179 186 188 178 180 179 184 174 177 176 179 180 179 181 184 185 188 185 184 177 167 120 80 69 65 59 49 50 92 74 66 62 56 64 59 49 52 51 60 58 57
173 176 181 183 177 177 176 171 173 171 172 166 182 177 182 186 178 180 180 172 159 160 126 90 92 109 122 101 67 66 56 101 78 70 64 60 67 64 59 51 53 60 61
173 180 181 175 174 176 173 170 167 167 161 167 177 190 181 165 169 170 164 156 147 131 123 162 154 151 133 115 110 98 72 94 80 84 72 79 77 68 68 64 58 54 56
177 179 173 175 175 173 172 168 164 162 170 173 180 190 178 171 171 168 164 158 149 144 143 176 171 160 150 136 132 113 87 84 101 90 84 76 77 94 89 77 65 62 63
177 167 173 178 176 173 171 168 166 174 179 180 178 180 179 176 171 165 161 159 149 144 165 182 176 171 167 172 182 168 161 145 120 103 98 92 85 58 65 68 69 58 60
173 164 175 173 165 170 170 169 169 176 183 183 183 183 177 177 173 172 168 157 173 182 184 190 180 176 181 186 155 133 118 108 102 112 112 108 102 103 96 89 80 73 57
163 177 167 169 166 165 169 171 170 182 189 186 189 191 189 184 182 178 169 161 173 189 189 190 186 195 197 171 140 127 134 146 148 129 116 110 110 107 102 99 97 87 79
173 172 174 172 169 173 174 174 175 191 185 182 195 191 190 187 189 187 176 177 186 194 194 194 193 210 176 166 152 150 156 158 153 151 146 127 122 120 106 99 102 104 99
178 181 184 182 178 176 175 171 173 178 177 178 201 189 184 176 191 189 177 191 195 195 205 191 198 174 186 193 157 162 169 169 161 154 148 149 135 130 122 119 122 115 115
184 188 190 189 177 177 173 173 176 179 178 179 200 196 183 175 188 189 187 196 202 201 210 191 177 189 205 190 175 157 186 195 167 157 154 170 157 133 143 137 129 117 127
190 194 197 186 182 179 180 179 182 181 181 185 201 203 185 176 186 191 191 201 208 206 204 189 187 205 205 184 178 180 202 199 176 163 163 168 153 155 154 137 115 117 113
226 192 197 184 182 185 187 184 186 185 187 186 198 205 187 180 186 193 194 206 209 205 200 193 196 209 201 183 202 198 202 188 177 160 157 176 163 153 149 146 146 123 123